星链-36836(STARLINK-36836)

导读

STARLINK-36836(NORAD编号68065)是SpaceX星链(Starlink)低轨互联网星座中的一颗卫星,隶属于SpaceX打造的全球卫星互联网项目。 星链计划自2015年启动,目标部署超4万颗卫星,填补全球网络覆盖空白,STARLINK-36836运行在近地轨道,采用Ku/Ka频段提供天基通信服务,支持偏远地区、航空航海等场景的联网需求。 2026年SpaceX启动降轨计划,将包括该卫星在内的四千余颗星链卫星轨道从550公里降至480公里,以降低太空碰撞风险,减少太空碎片隐患,提升轨道运行安全性。

基本信息
目录编号:
68065
目录名称:
STARLINK-36836
国际标识:
2026-041AB
轨道中心:
EARTH
卫星名称:
星链-36836
卫星全名:
星链-36836(STARLINK-36836)
卫星状态:
在轨 (已飞行187 天)
发射日期:
2026-03-02 UTC
国别 :
美国 (US)
星等 :
--
轨道信息
数据来源 国际轨道数据
星历时间: 2026-09-05T03:55:55+0800
16小时前
查看轨道信息
半长轴: 6840.818km
偏心率: 0.0000805
轨道倾角: 53.159°
近地点辐角 52.405°
升交点赤经 295.068°
平近点角 307.703°
近地点: 462.13km
远地点: 463.232km
周期: 93.847分钟
每日圈数: 15.344078
详细信息
固有亮度:
5
最大亮度:
2.5
卫星平台:
Starlink V1.0
覆盖范围:
全球
运营商:
太空探索技术公司
运营商所在国:
美国
制造商(研发单位):
太空探索技术公司
制造商所在国:
美国
使用方式:
暂无
卫星简介
Starlink 计划是 SpaceX 推出的全球卫星互联网项目,通过发射低轨道卫星,为全球尤其是偏远地区提供高速、低延迟的互联网服务。自 2019 年起,Starlink 已部署数千颗卫星,旨在缩小全球数字鸿沟,推动互联网普及。该项目还为军事、航空等行业提供通信支持,带来广泛经济效益。
2D轨道图
3D轨道图
轨道高度分析图
轨道倾角分析图
轨道综合分析图
查看轨道综合分析图
交会数据列表
事件ID 空间交会对象 最接近时刻(TCA) 交会距离 交会风险概率(CRP) 交会风险指数(CRI) 操作
CDM_260908-023005-356806-806521
2026-09-08T
02:30:39+0000
0.230 km
中距离
3.568943E-4 高风险 0.86
CDM_260907-123105-226406-806521
2026-09-07T
12:31:21+0000
1.327 km
极远距离
6.362951E-6 低风险 0.51
CDM_260907-105705-226406-806521
2026-09-07T
10:57:33+0000
1.397 km
极远距离
5.361164E-6 低风险 0.5
CDM_260906-000106-430906-806521
2026-09-06T
00:01:14+0000
1.696 km
极远距离
4.255457E-6 低风险 0.48
CDM_260907-174305-262806-806521
2026-09-07T
17:43:05+0000
2.488 km
极远距离
1.381158E-6 低风险 0.38
CDM_260905-133004-740706-806522
2026-09-05T
13:30:16+0000
1.717 km
极远距离
9.598891E-7 极低风险 0.35
CDM_260829-085306-806506-852221
2026-08-29T
08:53:21+0000
2.955 km
极远距离
9.405219E-7 极低风险 0.34
CDM_260907-105405-210206-806521
2026-09-07T
10:54:54+0000
2.636 km
极远距离
8.606199E-7 极低风险 0.34
CDM_260908-040405-356806-806521
2026-09-08T
04:04:26+0000
2.888 km
极远距离
5.22825E-7 极低风险 0.29